Location: Champaign/Urbana Astronomical Society Observatory
(40.0333°N, 88.2833°W)
Time: 18:02:14
(UTC-05:00)

DOVE 4 - Visible Passes

Search period start: 26 May 2019 00:00
Search period end: 05 June 2019 00:00
Orbit: 589 x 802 km, 97.7° (Epoch: 26 May)

Date Brightness Start Highest point End Pass type
(mag) Time Alt. Az. Time Alt. Az. Time Alt. Az.
26 May ? 02:59:23 10° NE 03:03:44 26° E 03:07:52 11° SSE visible
26 May ? 04:36:33 10° N 04:41:25 39° WNW 04:46:18 10° SW visible
27 May ? 03:39:21 10° NNE 03:44:35 62° E 03:49:01 15° S visible
28 May ? 02:43:42 10° NE 02:47:18 18° E 02:50:52 10° SE visible
28 May ? 04:20:03 10° N 04:25:12 55° WNW 04:30:10 11° SSW visible
29 May ? 03:23:12 10° NNE 03:28:15 44° E 03:32:34 14° SSE visible
30 May ? 02:28:33 10° ENE 02:30:48 13° E 02:33:02 10° ESE visible
30 May ? 04:03:39 10° N 04:08:58 78° WNW 04:13:43 13° SSW visible
31 May ? 03:07:11 10° NNE 03:11:52 31° E 03:16:06 12° SSE visible
31 May ? 04:44:44 10° N 04:49:25 33° WNW 04:54:05 10° SW visible
01 Jun ? 03:47:21 10° NNE 03:52:41 76° ESE 03:57:13 14° S visible
02 Jun ? 02:51:21 10° NE 02:55:26 22° E 02:59:27 10° SE visible
02 Jun ? 04:28:11 10° N 04:33:14 45° WNW 04:38:12 10° SW visible
03 Jun ? 03:31:09 10° NNE 03:36:21 53° E 03:40:44 14° S visible
04 Jun ? 02:35:52 10° NE 02:38:57 16° E 02:42:00 10° SE visible
04 Jun ? 04:11:45 10° N 04:17:00 64° WNW 04:21:51 12° SSW visible
